| time (UTC) | temp C | wind direction | speed KPH | gust KPH | rain 1hr cm | rain 24hr cm | rain mn cm | humidity % | barometer mb |
| 20260506023037 | 0 | 0 | 0.0 | 0.0 | 0.00 | 0.00 | 0.00 | 90 | 1014.5 |
| 20260506021544 | 0 | 0 | 0.0 | 0.0 | 0.00 | 0.00 | 0.00 | 89 | 1014.8 |
| 20260506020040 | 0 | 0 | 0.0 | 0.0 | 0.00 | 0.00 | 0.00 | 89 | 1014.7 |
| 20260506014546 | 0 | 0 | 0.0 | 0.0 | 0.00 | 0.00 | 0.00 | 89 | 1014.7 |
| 20260506013058 | 0 | 0 | 0.0 | 0.0 | 0.00 | 0.00 | 0.00 | 89 | 1014.7 |
| 20260506011556 | 0 | 0 | 0.0 | 0.0 | 0.00 | 0.00 | 0.00 | 88 | 1014.7 |
| 20260506010038 | 0 | 0 | 0.0 | 0.0 | 0.00 | 0.00 | 0.00 | 88 | 1014.7 |
| 20260506004543 | 0 | 0 | 0.0 | 0.0 | 0.00 | 0.00 | 0.00 | 86 | 1014.6 |
| 20260506003041 | 1 | 0 | 0.0 | 0.0 | 0.00 | 0.00 | 0.00 | 83 | 1014.6 |
| 20260506001544 | 2 | 0 | 0.0 | 0.0 | 0.00 | 0.00 | 0.00 | 83 | 1014.8 |
| 20260506000040 | 2 | 0 | 0.0 | 0.0 | 0.00 | 0.00 | 0.00 | 81 | 1014.7 |
| 20260505234539 | 2 | 0 | 0.0 | 0.0 | 0.00 | 0.00 | 0.00 | 83 | 1014.8 |
| 20260505233036 | 2 | 0 | 0.0 | 0.0 | 0.00 | 0.00 | 0.00 | 82 | 1014.7 |
| 20260505231538 | 2 | 0 | 0.0 | 0.0 | 0.00 | 0.00 | 0.00 | 83 | 1014.8 |
| 20260505230054 | 2 | 0 | 0.0 | 0.0 | 0.00 | 0.00 | 0.00 | 83 | 1014.7 |
| 20260505224540 | 2 | 0 | 0.0 | 0.0 | 0.00 | 0.00 | 0.00 | 83 | 1014.8 |
| 20260505223053 | 2 | 0 | 0.0 | 0.0 | 0.00 | 0.00 | 0.00 | 83 | 1014.7 |
| 20260505221539 | 2 | 0 | 0.0 | 0.0 | 0.00 | 0.00 | 0.00 | 82 | 1014.7 |
| 20260505220042 | 2 | 0 | 0.0 | 0.0 | 0.00 | 0.00 | 0.00 | 81 | 1014.7 |
| 20260505214536 | 2 | 0 | 0.0 | 0.0 | 0.00 | 0.00 | 0.00 | 80 | 1014.7 |
| 20260505213053 | 3 | 0 | 0.0 | 0.0 | 0.00 | 0.00 | 0.00 | 80 | 1014.7 |
| 20260505211542 | 3 | 0 | 0.0 | 0.0 | 0.00 | 0.00 | 0.00 | 78 | 1014.9 |
| 20260505210040 | 3 | 0 | 0.0 | 0.0 | 0.00 | 0.00 | 0.00 | 77 | 1014.9 |
| 20260505204540 | 3 | 0 | 0.0 | 0.0 | 0.00 | 0.00 | 0.00 | 74 | 1014.9 |
| 20260505203050 | 4 | 0 | 0.0 | 0.0 | 0.00 | 0.00 | 0.00 | 73 | 1014.8 |
| 20260505201542 | 5 | 0 | 0.0 | 6.4 | 0.00 | 0.00 | 0.00 | 71 | 1014.8 |
| 20260505200039 | 5 | 0 | 0.0 | 17.7 | 0.00 | 0.00 | 0.00 | 70 | 1014.7 |
| 20260505194540 | 5 | 0 | 3.2 | 22.5 | 0.00 | 0.00 | 0.00 | 69 | 1014.7 |
| 20260505193037 | 6 | 0 | 8.0 | 19.3 | 0.00 | 0.00 | 0.00 | 68 | 1014.7 |
| 20260505191544 | 6 | 277 | 4.8 | 14.5 | 0.00 | 0.00 | 0.00 | 69 | 1014.6 |
| 20260505190040 | 6 | 273 | 3.2 | 20.9 | 0.00 | 0.00 | 0.00 | 72 | 1014.6 |
| 20260505184540 | 6 | 0 | 8.0 | 29.0 | 0.00 | 0.00 | 0.00 | 71 | 1014.5 |
| 20260505183038 | 6 | 281 | 9.7 | 27.4 | 0.00 | 0.00 | 0.00 | 67 | 1014.2 |
| 20260505181539 | 7 | 249 | 9.7 | 24.1 | 0.00 | 0.00 | 0.00 | 69 | 1014.2 |
| 20260505180038 | 7 | 271 | 11.3 | 27.4 | 0.00 | 0.00 | 0.00 | 68 | 1014.2 |
| 20260505174548 | 8 | 286 | 12.9 | 24.1 | 0.00 | 0.00 | 0.00 | 67 | 1014.2 |
| 20260505173046 | 8 | 267 | 16.1 | 27.4 | 0.00 | 0.00 | 0.00 | 66 | 1014.2 |
| 20260505171539 | 7 | 277 | 14.5 | 30.6 | 0.00 | 0.00 | 0.00 | 61 | 1014.4 |
| 20260505170039 | 8 | 287 | 19.3 | 32.2 | 0.00 | 0.00 | 0.00 | 59 | 1014.3 |
| 20260505164549 | 8 | 286 | 14.5 | 29.0 | 0.00 | 0.00 | 0.00 | 61 | 1014.2 |
| 20260505163049 | 9 | 277 | 12.9 | 32.2 | 0.00 | 0.00 | 0.00 | 59 | 1014.1 |
| 20260505161544 | 9 | 291 | 19.3 | 35.4 | 0.00 | 0.00 | 0.00 | 59 | 1014.2 |
| 20260505153049 | 8 | 314 | 3.2 | 30.6 | 0.00 | 0.00 | 0.00 | 56 | 1014.1 |
| 20260505151554 | 9 | 261 | 14.5 | 27.4 | 0.00 | 0.00 | 0.00 | 61 | 1014.1 |
| 20260505124540 | 10 | 279 | 14.5 | 29.0 | 0.00 | 0.00 | 0.00 | 58 | 1014.2 |
| 20260505123037 | 9 | 280 | 17.7 | 29.0 | 0.00 | 0.00 | 0.00 | 60 | 1014.0 |
| 20260505121537 | 8 | 283 | 14.5 | 25.7 | 0.00 | 0.00 | 0.00 | 61 | 1014.0 |
| 20260505120041 | 8 | 280 | 11.3 | 27.4 | 0.00 | 0.00 | 0.00 | 60 | 1014.1 |
| 20260505114548 | 10 | 0 | 12.9 | 24.1 | 0.00 | 0.00 | 0.00 | 56 | 1014.0 |
| 20260505113046 | 10 | 224 | 9.7 | 24.1 | 0.00 | 0.00 | 0.00 | 60 | 1014.0 |
| 20260505111549 | 10 | 0 | 4.8 | 19.3 | 0.00 | 0.00 | 0.00 | 59 | 1014.0 |
| 20260505101539 | 7 | 290 | 4.8 | 24.1 | 0.00 | 0.00 | 0.00 | 66 | 1014.1 |
| 20260505100048 | 7 | 263 | 11.3 | 37.0 | 0.00 | 0.00 | 0.00 | 65 | 1014.1 |
| 20260505094536 | 8 | 280 | 0.0 | 14.5 | 0.00 | 0.00 | 0.00 | 59 | 1013.8 |
| 20260505093035 | 8 | 271 | 4.8 | 16.1 | 0.00 | 0.00 | 0.00 | 57 | 1013.9 |
| 20260505091554 | 9 | 0 | 4.8 | 12.9 | 0.00 | 0.00 | 0.00 | 57 | 1013.8 |
| 20260505090053 | 8 | 281 | 4.8 | 12.9 | 0.00 | 0.00 | 0.00 | 57 | 1013.8 |
| 20260505084539 | 8 | 0 | 1.6 | 14.5 | 0.00 | 0.00 | 0.00 | 59 | 1013.6 |
| 20260505083042 | 8 | 269 | 3.2 | 12.9 | 0.00 | 0.00 | 0.00 | 61 | 1013.6 |
| 20260505081555 | 8 | 0 | 0.0 | 12.9 | 0.00 | 0.00 | 0.00 | 60 | 1013.5 |
| 20260505080046 | 8 | 0 | 0.0 | 6.4 | 0.00 | 0.00 | 0.00 | 61 | 1013.5 |
| 20260505074559 | 7 | 0 | 0.0 | 4.8 | 0.00 | 0.00 | 0.00 | 64 | 1013.5 |
| 20260505073038 | 7 | 0 | 0.0 | 6.4 | 0.00 | 0.00 | 0.00 | 67 | 1013.4 |
| 20260505071536 | 6 | 0 | 0.0 | 0.0 | 0.00 | 0.00 | 0.00 | 70 | 1013.6 |
| 20260505070036 | 5 | 0 | 0.0 | 1.6 | 0.00 | 0.00 | 0.00 | 72 | 1013.5 |
| 20260505064541 | 5 | 0 | 1.6 | 6.4 | 0.00 | 0.00 | 0.00 | 72 | 1013.4 |
| 20260505063043 | 5 | 0 | 0.0 | 0.0 | 0.00 | 0.00 | 0.00 | 74 | 1013.4 |
| 20260505061601 | 4 | 0 | 0.0 | 0.0 | 0.00 | 0.00 | 0.00 | 77 | 1013.5 |
| 20260505060044 | 3 | 0 | 0.0 | 0.0 | 0.00 | 0.00 | 0.00 | 81 | 1013.6 |
| 20260505054541 | 2 | 0 | 0.0 | 0.0 | 0.00 | 0.00 | 0.00 | 88 | 1013.5 |
| 20260505053044 | 1 | 0 | 0.0 | 0.0 | 0.00 | 0.00 | 0.00 | 92 | 1013.5 |
| 20260505051541 | 0 | 0 | 0.0 | 0.0 | 0.00 | 0.00 | 0.00 | 92 | 1013.6 |
| 20260505041542 | 0 | 0 | 0.0 | 0.0 | 0.00 | 0.00 | 0.00 | 91 | 1012.8 |
| 20260505040041 | 0 | 0 | 0.0 | 0.0 | 0.00 | 0.00 | 0.00 | 91 | 1012.7 |
| 20260505034540 | 0 | 0 | 0.0 | 0.0 | 0.00 | 0.00 | 0.00 | 91 | 1013.0 |
| 20260505033046 | 0 | 0 | 0.0 | 0.0 | 0.00 | 0.00 | 0.00 | 91 | 1013.1 |
| 20260505031535 | 0 | 0 | 0.0 | 0.0 | 0.00 | 0.00 | 0.00 | 90 | 1013.1 |
| 20260505030043 | 0 | 0 | 0.0 | 0.0 | 0.00 | 0.00 | 0.00 | 90 | 1013.0 |
| 20260505024602 | 0 | 0 | 0.0 | 0.0 | 0.00 | 0.00 | 0.00 | 90 | 1013.1 |